IZ1TJT Weather Reports


time (UTC)temp
C
wind
direction
speed
KPH
gust
KPH
rain 1hr
cm
rain 24hr
cm
rain mn
cm
humidity
%
barometer
mb
20260507101531 16 84 3.2 11.3 0.00 0.13 0.13 83 1015.6
20260507100029 17 120 12.9 22.5 0.00 0.13 0.13 83 1015.5
20260507094533 18 68 12.9 27.4 0.00 0.13 0.13 83 1015.4
20260507093033 17 107 14.5 24.1 0.00 0.13 0.13 81 1015.4
20260507091525 17 110 8.0 19.3 0.00 0.13 0.13 82 1015.4
20260507090023 17 108 11.3 22.5 0.03 0.13 0.13 81 1015.4
20260507084525 17 115 1.6 16.1 0.03 0.13 0.13 84 1015.2
20260507083019 16 120 8.0 22.5 0.03 0.13 0.13 86 1015.0
20260507081530 16 124 8.0 24.1 0.03 0.13 0.13 87 1014.9
20260507080015 16 146 11.3 24.1 0.05 0.10 0.10 87 1014.7
20260507074513 16 181 9.7 20.9 0.10 0.10 0.10 88 1014.6
20260507073013 16 124 8.0 17.7 0.10 0.10 0.10 87 1014.3
20260507071508 15 165 9.7 20.9 0.10 0.10 0.10 88 1014.2
20260507070012 16 116 6.4 17.7 0.05 0.53 0.05 85 1014.1
20260507064504 17 87 8.0 17.7 0.00 0.48 0.00 79 1014.0
20260507063001 16 49 6.4 12.9 0.00 0.48 0.00 83 1014.0
20260507061701 16 110 3.2 9.7 0.00 0.48 0.00 84 1013.9
20260507060104 16 51 4.8 17.7 0.00 0.48 0.00 83 1013.9
20260507054558 16 27 6.4 14.5 0.00 0.48 0.00 84 1013.8
20260507053057 16 82 1.6 8.0 0.00 0.48 0.00 84 1013.7
20260507051555 16 32 3.2 14.5 0.00 0.48 0.00 84 1013.7
20260507050051 16 73 4.8 9.7 0.00 0.48 0.00 86 1013.4
20260507044604 15 34 3.2 11.3 0.00 0.48 0.00 87 1013.3
20260507043100 15 71 3.2 8.0 0.00 0.48 0.00 87 1013.2
20260507041543 15 83 0.0 8.0 0.00 0.48 0.00 87 1013.2
20260507040043 15 71 4.8 17.7 0.00 0.48 0.00 87 1013.1
20260507034542 15 60 1.6 8.0 0.00 0.48 0.00 87 1013.1
20260507033042 15 40 6.4 14.5 0.00 0.48 0.00 87 1013.1
20260507031545 15 113 1.6 9.7 0.00 0.48 0.00 88 1013.0
20260507030039 15 86 3.2 8.0 0.00 0.56 0.00 88 1013.1
20260507024542 15 69 3.2 9.7 0.00 0.56 0.00 87 1013.0
20260507023037 15 110 1.6 9.7 0.00 0.56 0.00 87 1013.0
20260507021538 15 56 1.6 4.8 0.00 0.56 0.00 88 1013.1
20260507020047 16 123 3.2 11.3 0.00 1.73 0.00 87 1013.0
20260507014535 16 130 0.0 6.4 0.00 1.73 0.00 87 1012.9
20260507013032 16 80 1.6 11.3 0.00 1.73 0.00 86 1012.8
20260507011541 16 107 3.2 11.3 0.00 1.73 0.00 86 1013.0
20260507010034 16 81 0.0 8.0 0.00 4.39 0.00 86 1013.1
20260507004531 16 186 3.2 11.3 0.00 4.39 0.00 86 1013.2
20260507003029 16 136 4.8 12.9 0.00 4.39 0.00 86 1013.2
20260507001600 16 91 6.4 14.5 0.00 4.39 0.00 86 1013.0
20260507000025 16 149 6.4 14.5 0.00 4.39 0.00 85 1013.0
20260506234524 16 129 4.8 16.1 0.00 4.39 0.00 84 1013.1
20260506233023 16 134 6.4 12.9 0.00 4.39 0.00 84 1013.2
20260506231521 16 174 3.2 14.5 0.00 4.39 0.00 83 1013.1
20260506230019 16 120 4.8 16.1 0.00 4.39 0.00 83 1013.0
20260506224518 16 133 8.0 17.7 0.00 4.39 0.00 83 1013.1
20260506223022 16 131 9.7 19.3 0.00 4.39 0.00 82 1013.1
20260506221515 16 212 4.8 16.1 0.00 4.39 0.00 82 1013.0
20260506220013 16 116 4.8 12.9 0.00 4.39 4.39 82 1013.1
20260506214512 16 134 6.4 19.3 0.00 4.39 4.39 83 1013.2
20260506213011 16 82 9.7 16.1 0.00 4.39 4.39 83 1013.2
20260506211510 16 125 8.0 19.3 0.00 4.39 4.39 83 1013.2
20260506210012 16 124 6.4 17.7 0.00 4.39 4.39 84 1013.2
20260506204509 16 159 4.8 17.7 0.00 4.39 4.39 84 1013.1
20260506203010 16 101 9.7 17.7 0.00 4.39 4.39 83 1012.9
20260506201511 16 153 6.4 20.9 0.00 4.39 4.39 84 1012.9
20260506200007 16 155 4.8 22.5 0.00 4.39 4.39 84 1012.7
20260506194507 16 98 6.4 12.9 0.00 4.39 4.39 84 1012.4
20260506193009 16 146 8.0 17.7 0.00 4.39 4.39 84 1012.2
20260506191510 16 127 8.0 20.9 0.00 4.39 4.39 84 1012.1
20260506190005 16 199 8.0 17.7 0.00 4.39 4.39 84 1012.0
20260506184505 16 112 4.8 16.1 0.00 4.39 4.39 83 1011.7
20260506183004 16 117 1.6 14.5 0.00 4.39 4.39 85 1011.6
20260506181501 16 138 9.7 22.5 0.00 4.39 4.39 85 1011.3
20260506180002 16 122 8.0 20.9 0.00 4.39 4.39 87 1011.2
20260506174502 16 122 4.8 16.1 0.00 4.39 4.39 87 1011.1
20260506173110 16 115 11.3 22.5 0.00 4.39 4.39 86 1011.0
20260506171600 16 105 8.0 22.5 0.00 4.39 4.39 87 1011.0
20260506171501 16 98 6.4 22.5 0.00 4.39 4.39 87 1011.0
20260506170109 16 10 8.0 20.9 0.00 4.39 4.39 86 1010.9
20260506164625 16 110 11.3 24.1 0.00 4.39 4.39 85 1011.0
20260506163108 17 120 12.9 22.5 0.00 4.39 4.39 83 1011.0
20260506161557 17 157 4.8 20.9 0.00 4.39 4.39 83 1010.9
20260506160113 17 148 11.3 25.7 0.00 4.39 4.39 81 1010.9
20260506154558 17 140 8.0 22.5 0.00 4.39 4.39 84 1010.8
20260506153055 17 176 8.0 20.9 0.00 4.39 4.39 84 1010.7
20260506151556 17 150 11.3 19.3 0.00 4.39 4.39 85 1010.8
20260506144553 18 233 4.8 16.1 0.00 4.39 4.39 82 1010.8
20260506143053 18 177 4.8 17.7 0.00 4.39 4.39 79 1010.7
20260506141551 18 193 11.3 20.9 0.00 4.39 4.39 78 1010.7
20260506140050 19 184 6.4 14.5 0.00 4.39 4.39 79 1010.8
20260506134551 18 283 8.0 22.5 0.00 4.39 4.39 80 1010.9
20260506133104 18 117 0.0 11.3 0.00 4.39 4.39 83 1011.0
20260506131555 18 287 3.2 12.9 0.00 4.39 4.39 80 1011.0
20260506130045 18 276 4.8 17.7 0.00 4.39 4.39 83 1010.9
20260506124544 18 293 6.4 16.1 0.00 4.39 4.39 83 1011.0
20260506123043 18 217 6.4 16.1 0.00 4.39 4.39 83 1010.8
20260506121548 18 266 8.0 19.3 0.00 4.39 4.39 85 1010.7
20260506120056 17 277 6.4 19.3 0.00 4.39 4.39 87 1010.6
20260506114540 17 276 6.4 17.7 0.00 4.39 4.39 88 1010.5
20260506113039 17 246 4.8 17.7 0.00 4.39 4.39 89 1010.5
20260506111545 17 272 6.4 16.1 0.00 4.39 4.39 89 1010.5
20260506110038 17 267 3.2 12.9 0.00 4.39 4.39 90 1010.5
20260506104547 17 121 1.6 14.5 0.00 4.39 4.39 90 1010.5
20260506103044 17 72 3.2 14.5 0.00 4.39 4.39 89 1010.6